• MPC Preparation (Info)

  • MPEC 2013-M19 : 2013 MQ

    The following Minor Planet Electronic Circular may be linked-to from your own Web pages, but must not otherwise be redistributed electronically.

    A form allowing access to any MPEC is at the bottom of this page.


    Read MPEC 2013-M18 Read MPEC 2013-M20


    M.P.E.C. 2013-M19                                Issued 2013 June 18, 19:03 UT
    
         The Minor Planet Electronic Circulars contain information on unusual
             minor planets and routine data on comets.  They are published
       on behalf of Commission 20 of the International Astronomical Union by the
              Minor Planet Center, Smithsonian Astrophysical Observatory,
                              Cambridge, MA 02138, U.S.A.
    
                 Prepared using the Tamkin Foundation Computer Network
    
                                  MPC@CFA.HARVARD.EDU
                URL https://www.minorplanetcenter.net/    ISSN 1523-6714
    
                                        2013 MQ
    
    Observations:
         K13M00Q* C2013 06 17.51600 19 25 00.273-05 12 23.93         19.9 wLEM019F51
         K13M00Q  C2013 06 17.53003 19 25 07.892-05 12 55.91         20.0 wLEM019F51
         K13M00Q  C2013 06 17.54408 19 25 15.530-05 13 27.63         20.0 wLEM019F51
         K13M00Q KC2013 06 18.01816 19 29 53.73 -05 32 01.4                qEM019204
         K13M00Q KC2013 06 18.02877 19 29 59.57 -05 32 27.0                qEM019204
         K13M00Q KC2013 06 18.03382619 30 01.32 -05 30 33.2          19.9 VqEM019K91
         K13M00Q KC2013 06 18.03704919 30 03.06 -05 30 40.5          20.0 VqEM019K91
         K13M00Q KC2013 06 18.03918 19 30 05.31 -05 32 49.6          20.3 RqEM019204
         K13M00Q KC2013 06 18.04344019 30 06.54 -05 30 55.1          20.7 VqEM019K91
         K13M00Q KC2013 06 18.04663519 30 08.30 -05 31 02.0          21.0 VqEM019K91
         K13M00Q KC2013 06 18.35814 19 33 11.55 -05 44 39.8          19.5 RoEM019291
         K13M00Q KC2013 06 18.35914 19 33 12.12 -05 44 42.0          19.7 RoEM019291
         K13M00Q KC2013 06 18.36015 19 33 12.69 -05 44 44.1          19.7 RoEM019291
    
    Observer details:
    204 Schiaparelli Observatory.  Observer L. Buzzi.  0.60-m f/4.64 reflector
        + CCD.
    291 LPL/Spacewatch II.  Observer J. V. Scotti.  1.8-m f/2.7 reflector + CCD.
    F51 Pan-STARRS 1, Haleakala.  Observers N. Primak, A. Schultz, S. Watters,
        T. Goggia, K. Chambers.  Measurer PS1 Science Consortium.  1.8-m
        Ritchey-Chretien + CCD.
    K91 Sutherland-LCOGT A.  Observer T. Lister.  1.0-m f/8 Ritchey-Chretien + CCD.
    
    Orbital elements:
    2013 MQ                                                  Earth MOID = 0.0758 AU
    Epoch 2013 Apr. 18.0 TT = JDT 2456400.5                 MPC
    M 340.75291              (2000.0)            P               Q
    n   0.29403167     Peri.  168.03660     +0.06003155     +0.99540975
    a   2.2397866      Node   105.37069     -0.92208315     +0.08389808
    e   0.5131271      Incl.    4.43346     -0.38230731     -0.04604940
    P   3.35           H   23.9           G   0.15           U   7
    Residuals in seconds of arc
    130617 F51  0.2-  0.2+    130618 K91  0.4+  0.1-    130618 291  0.3-  0.1+
    130617 F51  0.0   0.0     130618 K91  0.1+  0.1-    130618 291  0.1+  0.2+
    130617 F51  0.2+  0.0     130618 204  0.6-  0.2-    130618 291  0.4+  0.4+
    130618 204  0.1-  0.1-    130618 K91  0.1-  0.2-
    130618 204  0.4-  1.4-    130618 K91  0.1+  0.2+
    
    Ephemeris:
    2013 MQ                  a,e,i = 2.24, 0.51, 4                   q = 1.0905
    Date    TT    R. A. (2000) Decl.     Delta      r     Elong.  Phase     V
    2013 05 19    16 13 41.0 +03 03 05   0.1628  1.1623   156.0    20.7    21.3
    ...
    2013 06 03    17 22 58.1 +01 41 58   0.1098  1.1142   154.2    23.4    20.4
    ...
    2013 06 11    18 24 06.5 -01 23 48   0.09285 1.0988   152.9    24.9    20.1
    ...
    2013 06 17    19 20 00.4 -04 52 10   0.08732 1.0924   149.9    27.8    20.0
    2013 06 18    19 29 41.8 -05 30 00   0.08707 1.0917   149.2    28.4    20.0
    2013 06 19    19 39 23.2 -06 08 03   0.08701 1.0912   148.5    29.1    20.1
    ...
    2013 06 25    20 35 14.0 -09 48 01   0.09053 1.0909   143.9    33.3    20.3
    ...
    2013 07 03    21 35 31.6 -13 41 32   0.1037  1.0975   139.3    37.1    20.7
    ...
    2013 07 18    22 38 12.3 -18 06 55   0.1441  1.1308   140.2    35.1    21.4
    
    A. U. Tomatic                (C) Copyright 2013 MPC           M.P.E.C. 2013-M19
    

    Read MPEC 2013-M18 Read MPEC 2013-M20


    MPEC number:

    Enter an MPEC number in one of the following forms:

    • 1997-B01 (the full form)
    • J97B01 (the packed version of the full form)
    • B01 (the abbreviated form)